Wind_Speed
17 20 23 25 24 24 21 14 9 8 7 7 8 5 2 0 4 15 20 19 20 20 22 22 14 12 15 8 16 15 2 5 8 10 7 18 14 18 11 16 8 7 15 24 35
17 20 23 25 24 24 20 12 8 7 7 7 7 9 8 1 3 12 18 18 20 22 24 21 18 18 10 10 7 4 3 7 6 8 11 20 16 19 4 11 13 15 17 22 25
16 20 23 25 23 23 18 10 8 7 6 7 6 7 7 5 1 16 23 19 20 26 17 15 16 15 7 8 5 5 5 5 16 20 22 18 17 17 5 7 9 12 21 22 24
16 20 23 24 22 22 16 8 7 7 6 4 5 8 8 8 2 21 29 20 24 30 15 12 16 12 4 4 7 5 12 19 16 16 16 9 11 5 12 21 21 17 18 17 19
15 19 22 23 20 20 14 7 6 7 9 4 1 6 8 6 12 26 20 23 32 28 11 12 13 7 4 8 11 5 10 15 23 24 24 20 12 12 16 26 24 24 12 12 19
15 18 21 22 19 18 12 6 5 5 7 10 4 4 5 5 17 19 29 37 24 14 7 6 5 10 9 6 2 8 20 27 20 18 14 7 9 6 18 18 16 16 14 13 20
14 17 20 21 18 17 10 6 7 3 2 8 8 4 3 6 23 22 37 28 16 7 6 4 8 6 7 6 8 18 7 10 5 9 5 2 3 6 20 18 23 20 13 18 13
13 16 19 20 16 16 8 4 8 6 1 2 10 2 1 12 18 31 39 19 10 10 6 6 6 9 4 11 9 5 3 6 12 8 6 2 7 7 9 11 17 15 10 6 11
12 15 18 19 15 14 8 2 4 7 4 6 9 3 3 20 26 35 42 22 12 15 3 4 6 4 8 3 5 5 5 9 8 10 5 2 5 5 14 13 14 14 16 12 11
12 15 17 18 14 13 9 1 3 12 2 3 14 0 14 24 20 35 37 12 12 15 7 4 4 2 5 6 6 12 5 5 7 9 14 4 7 7 19 26 18 22 14 7 7
11 14 16 17 12 13 9 4 6 3 18 12 8 2 17 24 17 37 47 13 15 11 6 5 8 8 9 5 4 6 6 7 13 5 10 7 9 14 20 29 26 25 21 21 15
11 13 15 16 10 14 9 5 6 9 8 6 10 12 19 13 18 38 39 12 10 5 10 6 3 5 9 11 6 7 5 6 9 11 5 7 11 10 13 15 20 22 27 28 25
11 13 15 15 8 14 12 9 9 9 5 5 9 14 23 6 13 30 33 10 5 7 6 0 5 8 9 9 12 8 4 6 11 12 4 6 4 17 11 21 32 35 31 30 27
10 12 13 13 7 12 7 4 6 6 5 9 9 10 23 1 8 27 34 8 8 6 7 4 9 8 13 14 8 4 4 15 13 5 2 2 1 17 16 18 25 33 35 35 38
9 12 12 11 8 7 5 3 6 3 4 7 6 6 12 13 10 24 31 10 4 6 4 5 7 9 17 12 7 8 20 13 6 4 1 1 5 10 12 21 25 25 36 38 35
8 10 10 10 9 9 4 6 5 6 3 4 6 8 7 11 8 18 21 20 6 5 5 5 12 5 9 16 4 15 6 4 2 2 3 6 3 8 12 17 22 23 36 36 36
7 8 8 9 8 7 3 5 5 6 3 6 4 6 3 6 7 9 8 12 9 8 9 8 7 8 19 10 5 17 7 4 5 5 2 3 10 3 9 16 15 21 34 36 34
6 6 5 9 9 7 1 4 7 3 2 2 4 4 4 8 5 9 4 7 6 5 2 6 8 8 14 5 9 7 4 3 3 3 4 7 4 3 18 20 22 26 31 30 36
5 3 2 8 8 6 0 6 5 3 2 5 4 5 4 4 3 5 6 5 4 3 3 7 5 5 6 5 7 8 5 3 3 3 2 3 5 1 21 19 29 33 38 40 41
4 0 3 6 6 4 5 4 2 1 2 2 2 3 5 6 6 5 4 3 6 7 1 3 6 2 6 8 8 5 6 4 3 4 5 4 4 7 22 25 24 28 38 41 43
3 2 1 4 3 5 4 3 3 1 1 1 1 2 2 2 1 2 4 2 5 7 3 2 2 8 3 6 6 8 6 5 2 2 1 3 2 5 13 17 21 25 36 38 40
4 1 1 1 4 5 2 5 6 3 1 1 3 2 1 1 2 2 4 4 8 6 2 3 3 4 5 1 1 5 5 4 2 6 2 2 0 5 13 16 23 27 36 37 39
4 3 2 1 3 1 2 4 3 3 1 1 2 1 1 1 4 1 2 1 7 9 6 3 3 5 8 6 5 5 9 7 4 2 3 2 2 7 21 20 25 25 35 38 39
5 2 2 4 5 8 6 4 3 2 2 3 3 2 4 3 3 1 2 2 6 11 10 2 2 5 5 6 1 5 7 10 4 3 5 1 9 10 19 19 25 25 33 34 36
6 2 3 2 1 7 5 5 5 4 1 2 1 2 4 2 4 0 2 4 4 9 6 4 1 1 8 10 3 3 5 8 5 4 2 8 8 9 17 16 20 20 28 35 38
8 7 7 5 13 7 3 4 6 4 5 3 3 4 4 4 6 5 3 2 2 5 4 4 2 5 4 1 2 2 8 7 3 6 3 8 6 19 28 24 23 22 30 33 39
11 12 7 5 4 4 4 6 7 12 2 4 6 4 2 3 4 3 4 2 2 4 3 2 2 3 5 6 4 3 3 3 5 1 4 5 9 21 20 25 21 22 32 32 34
Wind_Direction
5 5 5 4 2 1 3 12 28 36 47 43 49 51 236 174 23 18 14 348 341 340 329 334 340 341 326 294 295 286 216 246 255 267 261 278 293 294 297 301 298 262 261 290 298
2 2 3 2 1 1 4 17 29 37 43 38 46 46 33 271 334 10 353 344 345 338 335 340 335 334 322 300 296 188 213 252 229 249 271 276 274 282 289 292 296 283 283 290 313
358 0 1 1 1 360 4 20 27 34 35 39 46 28 14 349 166 351 353 342 338 342 330 333 330 337 314 314 298 316 252 254 286 273 272 272 272 263 239 277 261 290 304 302 312
357 358 360 0 0 359 4 20 26 39 26 30 44 25 10 10 24 339 337 327 330 335 325 336 336 344 300 307 304 323 262 269 274 285 280 276 291 254 229 264 280 283 287 300 308
356 357 358 358 359 360 5 17 25 37 24 2 306 350 14 40 341 338 337 324 326 328 326 336 333 340 312 297 309 241 275 285 281 285 274 273 251 254 266 271 281 283 260 287 292
353 357 356 357 357 0 2 14 12 20 29 33 37 14 37 71 354 342 339 337 341 333 316 323 308 307 285 268 280 272 298 290 291 278 272 262 261 224 267 270 268 280 237 270 314
350 354 355 356 356 359 2 23 13 324 339 30 27 28 74 25 354 342 348 355 3 344 327 350 310 314 310 289 290 289 298 299 260 279 279 249 275 225 265 266 260 252 238 213 234
348 352 355 355 358 358 2 45 21 30 45 13 17 16 82 351 350 1 358 9 44 25 357 3 322 310 249 297 303 336 35 342 300 308 342 75 299 325 338 277 263 244 237 216 257
345 350 353 355 359 359 356 357 38 32 96 46 11 69 19 344 2 356 359 356 14 18 359 301 321 331 321 331 331 6 299 322 312 333 330 251 303 281 338 29 344 214 209 206 239
344 349 351 355 357 360 356 245 92 38 132 6 25 67 6 346 352 352 3 14 30 17 66 60 34 29 351 6 346 319 333 302 301 318 343 355 314 3 14 29 32 44 55 73 186
343 347 349 351 354 4 8 120 120 76 66 64 57 67 338 352 10 0 5 29 32 32 19 21 41 354 307 2 322 310 318 310 323 302 331 345 24 33 36 31 21 22 18 25 25
341 344 347 349 348 6 27 128 126 138 97 65 29 4 357 359 5 3 5 34 30 15 344 18 357 293 315 334 332 318 310 311 307 319 11 3 53 16 34 30 16 14 12 4 5
338 341 347 347 341 360 32 93 123 128 99 33 11 7 4 38 32 360 8 360 21 23 2 111 276 327 340 334 348 328 253 310 303 315 205 0 68 19 12 12 6 8 2 359 354
335 339 349 355 350 354 26 104 147 140 78 330 351 11 359 96 27 6 6 12 10 354 336 287 313 342 340 350 356 291 248 303 289 331 295 79 46 19 354 2 10 2 356 348 342
333 339 350 1 348 356 4 136 153 121 51 335 345 356 29 66 336 1 11 16 30 315 15 289 318 345 350 333 336 268 314 293 280 256 305 352 81 345 4 4 356 352 348 347 338
335 340 354 358 354 2 43 129 140 43 286 325 338 3 16 27 16 354 15 24 27 352 357 292 302 344 332 312 307 322 328 19 51 351 43 349 98 15 10 346 347 347 350 341 343
330 344 357 359 357 9 69 143 35 94 355 335 339 3 44 350 4 12 2 23 36 11 17 325 319 316 6 340 322 353 17 351 11 17 1 35 63 70 360 358 348 338 343 342 346
323 346 5 6 6 6 49 61 72 249 280 355 0 332 61 10 16 356 23 17 33 67 21 26 336 11 334 6 309 321 53 102 336 347 312 37 28 139 28 359 351 354 348 348 351
309 337 18 11 2 352 39 53 190 218 315 334 321 42 3 11 65 32 23 359 348 31 68 2 295 325 343 339 9 324 34 262 267 246 291 62 357 142 357 355 355 2 354 356 354
287 248 33 7 3 8 72 136 165 31 353 8 65 41 12 349 36 42 359 314 331 8 153 289 297 317 306 358 7 64 306 11 6 18 349 90 58 354 352 351 348 356 354 350 354
238 192 25 357 6 45 101 151 126 128 225 51 144 65 66 39 44 32 284 318 338 325 22 99 116 297 21 15 17 4 11 351 287 1 113 317 66 10 1 347 343 352 349 347 352
215 91 355 354 37 52 95 129 126 167 102 121 97 98 118 48 51 15 18 200 355 352 0 283 156 291 236 28 140 96 354 351 49 330 326 296 5 39 20 347 345 350 347 350 357
192 141 54 150 122 74 105 74 99 134 157 128 112 114 352 102 50 296 3 70 23 19 6 316 347 350 350 356 5 29 2 335 272 271 18 29 339 31 3 355 355 354 347 352 357
182 69 84 77 92 128 136 140 118 104 142 119 123 122 56 54 40 294 328 335 349 15 2 74 95 151 198 225 205 357 335 345 352 56 315 40 307 354 352 348 350 352 349 351 355
182 160 153 190 349 109 105 139 131 169 179 144 88 164 132 85 359 268 345 339 26 7 17 89 111 263 268 265 219 84 346 351 36 2 125 316 310 1 342 334 338 343 351 354 358
180 153 120 82 125 101 3 204 148 157 144 218 152 166 155 154 176 221 143 184 254 333 21 30 304 3 295 65 10 132 23 355 7 360 322 312 323 356 328 331 342 355 358 357 351
191 159 148 147 102 92 206 170 188 139 132 167 160 122 181 214 162 195 223 211 239 148 328 45 22 34 282 347 19 7 325 330 315 82 307 4 315 326 328 331 340 4 0 351 348
Height
1545 1542 1539 1535 1531 1527 1523 1520 1518 1517 1516 1515 1515 1514 1514 1513 1513 1512 1509 1511 1508 1504 1500 1495 1492 1491 1488 1485 1485 1483 1488 1490 1481 1478 1470 1466 1464 1458 1458 1455 1455 1454 1451 1451 1445
1545 1542 1539 1535 1531 1527 1522 1520 1519 1518 1517 1516 1515 1514 1514 1513 1512 1510 1510 1509 1506 1502 1497 1493 1490 1487 1486 1484 1483 1481 1484 1478 1473 1470 1468 1461 1461 1455 1455 1454 1451 1446 1444 1449 1446
1545 1542 1538 1535 1531 1527 1523 1521 1519 1519 1517 1516 1515 1515 1514 1513 1512 1510 1507 1505 1502 1497 1495 1494 1490 1487 1484 1483 1481 1479 1477 1469 1466 1464 1461 1458 1456 1454 1452 1451 1451 1441 1439 1446 1444
1545 1542 1539 1535 1531 1527 1523 1521 1520 1519 1518 1517 1515 1514 1513 1512 1516 1509 1506 1502 1498 1495 1491 1489 1489 1487 1486 1483 1481 1482 1473 1467 1462 1458 1455 1453 1452 1450 1449 1441 1443 1448 1442 1449 1443
1545 1542 1539 1535 1531 1527 1524 1522 1521 1520 1519 1516 1515 1514 1514 1514 1514 1509 1504 1500 1495 1488 1487 1487 1489 1488 1486 1483 1480 1476 1469 1462 1456 1453 1448 1447 1447 1446 1443 1441 1442 1442 1442 1443 1446
1544 1541 1539 1535 1530 1527 1523 1521 1521 1520 1519 1517 1516 1514 1514 1515 1514 1508 1502 1494 1485 1483 1484 1486 1486 1485 1484 1479 1478 1469 1467 1459 1452 1446 1443 1443 1441 1442 1433 1437 1438 1436 1439 1434 1429
1543 1541 1538 1534 1530 1526 1523 1522 1520 1519 1519 1517 1516 1514 1514 1515 1511 1506 1498 1488 1484 1482 1482 1483 1484 1483 1481 1478 1471 1467 1467 1456 1447 1443 1440 1436 1437 1437 1428 1428 1429 1435 1438 1448 1452
1542 1540 1536 1533 1529 1526 1523 1522 1520 1518 1518 1517 1516 1514 1513 1512 1509 1503 1495 1488 1485 1484 1484 1484 1483 1483 1482 1478 1471 1467 1466 1467 1445 1443 1439 1440 1440 1431 1429 1427 1425 1424 1429 1428 1435
1541 1538 1535 1531 1528 1525 1522 1520 1521 1519 1518 1518 1516 1515 1515 1511 1504 1501 1494 1487 1485 1483 1482 1483 1484 1484 1482 1481 1480 1477 1477 1468 1454 1445 1445 1443 1441 1432 1431 1428 1428 1429 1431 1432 1428
1539 1537 1533 1529 1526 1524 1520 1519 1520 1519 1518 1519 1519 1520 1515 1513 1508 1504 1493 1487 1485 1482 1481 1483 1486 1487 1486 1486 1484 1478 1474 1469 1465 1450 1444 1443 1441 1436 1435 1429 1426 1423 1428 1430 1437
1538 1535 1532 1527 1525 1522 1519 1518 1521 1522 1520 1525 1526 1524 1520 1515 1510 1504 1493 1489 1487 1485 1491 1486 1492 1495 1491 1483 1480 1476 1473 1469 1456 1449 1447 1446 1446 1446 1443 1440 1439 1436 1436 1435 1430
1536 1533 1530 1526 1524 1521 1518 1515 1515 1519 1524 1525 1526 1523 1519 1514 1511 1507 1499 1494 1494 1498 1492 1493 1496 1490 1486 1480 1479 1476 1472 1467 1455 1449 1447 1446 1450 1451 1448 1451 1453 1449 1439 1434 1433
1534 1532 1529 1524 1523 1522 1519 1517 1517 1518 1521 1525 1525 1523 1519 1517 1516 1511 1504 1502 1500 1499 1500 1497 1491 1488 1485 1480 1476 1473 1470 1466 1465 1450 1448 1445 1448 1455 1453 1452 1446 1441 1441 1440 1441
1533 1530 1527 1525 1524 1520 1520 1518 1517 1518 1535 1532 1527 1526 1522 1517 1517 1519 1511 1510 1505 1508 1504 1499 1490 1491 1488 1482 1478 1480 1464 1462 1458 1457 1457 1447 1444 1459 1459 1456 1451 1452 1445 1440 1433
1531 1530 1527 1523 1523 1521 1522 1519 1518 1520 1547 1532 1529 1528 1527 1524 1531 1524 1519 1511 1514 1512 1510 1503 1498 1494 1492 1484 1478 1473 1461 1457 1454 1457 1453 1449 1465 1476 1463 1457 1460 1451 1446 1440 1437
1529 1528 1525 1523 1521 1520 1519 1520 1523 1535 1555 1534 1532 1530 1529 1530 1531 1528 1523 1516 1515 1513 1512 1510 1502 1498 1497 1485 1479 1472 1461 1457 1454 1454 1456 1458 1463 1484 1479 1482 1472 1467 1459 1452 1443
1527 1526 1523 1521 1520 1518 1517 1520 1534 1546 1539 1539 1539 1536 1536 1538 1536 1533 1533 1529 1534 1537 1542 1520 1504 1497 1495 1485 1479 1477 1479 1498 1480 1482 1457 1460 1475 1497 1495 1489 1482 1473 1465 1454 1446
1525 1524 1522 1520 1519 1518 1517 1521 1541 1545 1544 1543 1541 1539 1541 1543 1543 1542 1541 1547 1541 1546 1561 1542 1524 1508 1503 1502 1501 1492 1496 1514 1502 1482 1466 1461 1480 1493 1492 1493 1488 1479 1470 1465 1450
1524 1522 1521 1518 1517 1517 1518 1545 1553 1549 1548 1547 1543 1543 1546 1544 1547 1546 1552 1554 1546 1545 1554 1543 1530 1513 1508 1504 1502 1497 1509 1498 1499 1482 1473 1479 1487 1488 1489 1488 1480 1476 1468 1458 1450
1522 1521 1521 1519 1517 1516 1521 1547 1547 1548 1549 1548 1546 1549 1549 1551 1554 1558 1561 1552 1551 1545 1544 1551 1544 1520 1514 1508 1507 1510 1505 1502 1504 1511 1504 1485 1494 1508 1497 1489 1482 1474 1469 1461 1452
1521 1521 1520 1519 1518 1517 1539 1546 1545 1548 1549 1550 1551 1552 1554 1558 1556 1559 1564 1554 1550 1547 1545 1548 1554 1533 1518 1525 1525 1517 1522 1512 1508 1503 1516 1499 1504 1516 1513 1504 1493 1486 1479 1469 1457
1520 1521 1519 1519 1521 1530 1541 1539 1542 1548 1548 1549 1549 1550 1554 1553 1559 1562 1558 1556 1551 1549 1554 1547 1556 1558 1535 1525 1524 1527 1529 1525 1524 1514 1510 1501 1510 1516 1515 1511 1503 1492 1484 1475 1466
1517 1518 1519 1518 1532 1541 1540 1542 1544 1548 1548 1547 1549 1551 1552 1553 1566 1556 1554 1554 1552 1551 1549 1549 1564 1568 1543 1537 1528 1531 1533 1532 1524 1518 1519 1526 1511 1513 1515 1511 1506 1497 1488 1479 1471
1516 1520 1518 1518 1521 1524 1537 1542 1546 1548 1549 1546 1549 1550 1554 1555 1557 1558 1556 1554 1553 1552 1550 1548 1564 1563 1570 1555 1550 1549 1545 1536 1532 1537 1533 1521 1521 1513 1514 1511 1505 1500 1491 1484 1476
1512 1514 1516 1527 1525 1525 1529 1537 1544 1549 1549 1547 1549 1549 1554 1568 1567 1563 1559 1556 1554 1553 1550 1551 1564 1557 1546 1541 1541 1542 1546 1542 1546 1538 1540 1528 1525 1522 1520 1515 1509 1504 1496 1483 1477
1507 1509 1514 1521 1522 1525 1532 1538 1540 1544 1546 1549 1550 1549 1552 1562 1560 1566 1561 1560 1557 1554 1552 1552 1564 1557 1557 1534 1535 1540 1543 1543 1541 1539 1534 1533 1523 1522 1518 1514 1509 1502 1494 1489 1478
1503 1504 1505 1523 1524 1529 1531 1532 1535 1536 1544 1545 1545 1548 1551 1553 1553 1554 1555 1557 1556 1558 1556 1557 1559 1567 1566 1544 1550 1552 1552 1549 1543 1545 1543 1538 1534 1528 1517 1513 1509 1504 1498 1493 1487